Temperature
11 11 11 10 10 10 10 10 10 10 10 12 12 12 12 12 12 12 12 13 13 13 13 14 14 14 14 14 14 15 15 15 15 15 15 15 16 16
11 11 11 10 10 10 10 10 10 10 10 11 11 11 11 11 12 12 12 12 12 13 13 13 13 13 14 14 14 14 14 15 15 15 15 15 15 15
11 11 11 11 10 10 10 10 10 10 10 10 11 11 11 11 11 11 12 12 12 12 12 13 13 13 13 13 14 14 14 14 14 15 15 15 15 15
11 11 11 11 10 10 10 10 10 10 10 10 10 11 11 11 11 11 11 11 12 12 12 12 13 13 13 13 13 14 14 14 14 14 15 15 15 15
11 11 11 11 11 10 10 10 10 10 10 10 10 10 10 10 10 11 11 11 11 11 12 12 12 12 12 13 13 13 13 14 14 14 14 14 15 15
11 11 11 11 11 10 10 10 10 10 10 9 10 10 10 10 10 10 10 11 11 11 11 11 12 12 12 12 12 12 13 13 13 14 14 14 14 14
12 11 11 11 11 10 10 10 10 10 9 9 9 9 10 10 10 10 10 10 10 11 11 11 11 11 12 12 12 12 12 12 13 13 13 14 14 14
12 12 11 11 11 10 10 10 10 9 9 9 9 9 10 9 9 9 9 9 10 10 10 11 11 11 11 11 12 12 12 12 12 13 13 13 14 14
12 12 12 11 11 10 10 10 10 9 9 9 9 9 9 9 9 9 9 9 9 9 9 10 11 11 11 11 11 11 12 12 12 12 13 13 13 14
12 12 11 11 11 10 10 10 10 10 9 9 9 9 9 9 9 8 8 8 9 9 9 9 10 11 11 11 11 11 12 12 12 12 12 13 13 13
12 12 12 11 11 11 10 10 10 10 10 9 9 9 9 9 8 8 8 8 8 9 9 9 9 10 10 11 11 11 11 11 12 12 12 13 13 13
12 12 12 12 11 11 10 10 10 10 10 9 9 9 9 9 8 8 8 8 8 8 9 9 9 9 9 10 11 11 11 11 11 12 12 12 12 12
12 12 12 12 11 11 10 10 10 10 9 9 9 9 9 9 9 8 8 8 8 8 8 8 8 8 8 9 10 10 10 11 11 11 11 12 12 12
12 12 12 11 11 11 11 10 10 9 9 9 9 9 9 9 9 8 8 8 8 8 8 8 8 8 8 8 9 10 10 10 10 11 11 11 11 12
12 12 12 11 11 11 10 10 10 9 9 9 9 9 9 9 8 8 8 8 8 8 8 8 8 8 8 8 8 9 9 10 10 10 11 11 11 11
12 12 11 11 11 11 10 10 10 10 9 9 9 9 9 8 8 8 8 8 8 8 8 8 8 8 8 8 8 8 9 9 10 10 10 10 11 11
11 11 11 11 11 11 11 10 10 10 9 9 9 9 9 8 8 8 8 8 8 8 8 8 8 8 8 8 8 8 8 9 9 10 10 10 10 11
11 11 11 11 11 11 10 10 10 10 9 9 9 8 8 8 8 8 8 8 8 8 8 8 8 8 8 8 8 8 8 9 9 9 9 10 10 11
11 11 11 11 11 10 10 10 10 10 9 9 9 8 8 8 8 8 8 8 8 8 8 8 8 7 7 7 8 9 9 9 9 9 9 9 10 11
11 11 11 11 10 10 10 10 10 9 9 9 9 8 8 8 8 8 8 8 8 8 8 8 8 7 7 7 7 8 9 9 9 9 9 9 10 10
10 10 10 10 10 10 10 10 9 9 9 8 8 8 8 8 8 8 7 7 7 7 7 8 8 8 7 7 7 8 8 9 9 9 9 9 9 10
9 9 10 10 10 10 9 9 9 9 8 8 8 8 8 8 7 7 7 7 7 7 8 8 8 7 7 7 7 7 8 8 9 9 9 9 9 9
9 9 9 9 9 9 9 9 8 8 8 8 8 8 8 8 7 7 7 7 7 7 7 7 7 7 7 7 7 7 8 8 8 8 8 9 9 9
Wind_Speed
4 4 3 3 3 4 4 4 2 3 3 3 2 3 6 7 9 8 7 9 9 8 7 8 8 8 9 11 15 18 21 23 24 25 26 28 29 30
3 4 4 4 4 4 4 5 5 5 4 3 4 4 6 8 9 8 8 10 9 9 9 9 10 10 11 12 14 16 18 21 23 24 25 27 28 29
4 5 6 5 4 4 4 4 5 5 6 6 4 4 4 6 7 8 8 8 8 10 10 11 12 12 13 13 14 16 17 19 21 22 23 25 27 28
6 6 7 5 5 5 4 5 6 7 7 8 5 4 5 6 6 6 7 7 8 10 12 12 12 13 14 14 14 15 17 18 19 21 22 23 25 28
7 7 7 6 7 6 6 6 6 6 7 7 7 4 5 4 5 5 6 5 7 9 11 11 12 13 14 14 14 14 16 17 19 20 22 23 24 26
8 8 8 8 9 8 7 8 7 6 6 7 7 6 6 5 4 5 5 4 5 6 8 9 10 11 12 13 14 15 15 17 18 19 21 22 23 25
8 8 9 10 12 10 8 8 7 7 6 7 7 6 6 5 5 4 5 6 5 4 4 5 5 6 8 10 12 14 15 16 17 19 20 21 23 24
10 9 9 10 12 13 13 13 11 9 9 8 8 9 10 8 6 6 5 5 5 3 3 5 4 6 7 9 12 14 16 16 17 19 20 21 22 23
10 10 9 9 10 9 10 12 12 13 14 11 12 12 11 9 7 8 7 7 8 5 3 7 6 8 9 12 15 17 18 18 18 19 20 21 21 23
12 12 11 11 10 10 9 10 10 11 11 11 12 13 12 11 9 9 9 8 8 7 6 6 7 8 8 10 15 18 18 19 19 19 19 20 20 22
12 12 12 13 14 13 10 11 12 11 11 14 15 15 15 15 11 7 7 7 8 7 6 6 6 6 7 8 12 15 16 17 17 17 17 17 18 18
10 11 14 15 15 13 11 11 13 13 10 8 8 10 10 11 12 11 10 9 8 7 6 6 5 4 5 4 5 7 8 11 14 15 16 16 15 11
10 10 10 15 17 16 14 12 15 13 9 9 9 9 8 8 8 9 10 11 11 10 6 6 5 5 6 5 4 5 5 5 6 7 11 14 15 13
12 11 11 14 15 15 13 14 16 12 8 8 9 10 10 10 9 9 10 12 13 14 12 10 8 8 8 9 8 5 6 6 6 6 6 9 12 16
12 15 15 14 13 12 14 15 12 9 9 9 11 11 11 10 9 7 8 10 12 15 16 15 13 11 10 11 10 9 7 7 7 8 7 7 7 7
13 13 14 14 12 12 10 10 9 9 10 11 11 11 9 8 9 8 7 7 7 10 12 15 14 14 12 13 11 11 10 7 5 7 7 7 7 8
7 6 7 7 8 9 9 9 8 8 10 10 10 10 9 9 9 8 7 7 7 8 9 7 9 11 13 11 11 12 11 11 10 9 8 8 9 9
8 8 10 10 11 11 10 9 9 9 10 9 9 10 9 9 9 8 7 8 9 10 10 8 6 5 6 9 14 13 12 11 10 10 9 9 10 9
8 11 11 11 11 10 10 10 9 9 8 9 9 9 9 9 9 9 8 9 9 10 10 9 8 8 10 11 9 14 13 11 10 9 9 9 10 9
9 11 12 11 11 10 10 10 9 8 8 8 9 9 9 9 9 9 9 10 10 10 10 9 9 11 12 12 10 8 14 13 10 10 10 9 9 8
9 10 11 10 10 10 10 9 9 8 8 8 8 9 8 8 9 9 9 11 11 10 11 11 11 12 10 8 8 9 8 12 12 9 8 8 8 7
9 10 10 10 9 9 9 8 8 8 8 8 8 8 8 8 10 10 10 9 9 10 12 10 8 7 8 10 12 12 10 8 8 10 9 7 6 6
9 8 9 9 9 8 8 9 9 8 8 8 8 8 8 8 8 9 9 9 9 10 10 9 7 7 9 10 11 11 12 10 7 6 7 6 9 9
Wind_Direction
231 229 230 235 220 219 214 204 213 273 289 277 284 297 313 315 315 320 317 319 320 311 299 289 280 271 264 258 250 241 237 236 234 232 231 229 227 225
232 234 240 242 233 224 219 217 215 226 257 263 258 277 293 298 301 304 302 305 304 301 293 285 278 273 268 262 257 249 240 237 235 233 232 231 229 227
245 239 248 245 244 239 225 222 221 217 249 270 258 268 275 281 295 299 296 292 292 292 290 283 275 270 267 263 258 251 246 240 236 234 232 231 229 228
251 246 253 251 246 245 236 235 234 224 236 268 274 268 260 271 279 286 289 287 283 285 283 279 272 268 265 262 259 253 249 245 240 236 234 233 231 229
248 246 252 248 252 249 243 245 246 243 233 251 271 267 266 266 276 279 281 281 284 282 280 276 272 269 265 260 257 254 251 248 245 241 237 235 233 231
249 247 249 245 248 251 251 249 248 250 246 251 266 270 269 266 258 269 281 278 284 286 280 277 274 273 267 261 257 255 253 251 248 244 241 238 236 234
255 251 249 249 248 246 248 249 245 248 251 255 264 270 269 263 258 256 270 281 279 264 275 273 271 274 272 267 263 259 255 252 250 247 244 241 239 236
257 258 256 257 258 256 252 249 239 241 248 251 259 261 266 263 259 256 262 274 280 248 247 270 264 271 270 267 265 263 259 256 253 250 246 243 241 239
250 255 259 256 249 254 258 261 256 246 237 242 254 258 262 259 255 258 250 250 258 258 254 274 266 267 269 267 265 263 260 256 254 252 248 244 241 239
248 247 251 256 252 246 255 261 263 260 250 245 247 253 255 256 248 254 261 262 262 258 234 261 268 265 269 267 264 262 261 257 254 252 249 245 241 238
251 246 243 250 250 240 244 254 264 267 258 246 243 249 253 252 246 247 249 250 265 264 220 234 262 266 267 265 262 259 259 257 255 252 249 246 242 239
256 249 239 239 246 238 235 242 255 262 264 265 257 258 258 258 246 235 239 246 256 263 227 215 247 254 271 256 256 256 257 257 255 253 250 245 237 231
254 254 247 234 237 238 232 236 243 250 258 259 265 267 266 260 254 241 233 234 243 248 234 207 240 240 250 270 270 258 253 256 254 252 248 243 234 221
250 252 249 239 234 236 235 236 241 245 251 254 259 263 263 262 258 250 240 236 238 247 249 230 241 246 252 261 267 265 255 252 253 256 254 245 237 232
247 246 246 245 240 242 241 239 239 239 238 245 252 257 258 259 261 260 254 246 247 248 249 240 238 244 245 251 257 260 265 264 252 250 249 244 239 227
248 250 248 248 243 243 247 244 236 232 231 241 250 257 260 258 257 254 257 255 256 258 246 238 235 235 241 244 249 255 253 253 249 241 245 249 242 233
243 243 243 242 243 244 244 243 237 231 233 238 244 252 256 256 257 250 246 244 244 257 262 248 233 231 235 240 245 249 251 250 251 250 247 253 252 240
235 242 243 243 244 246 246 244 238 233 233 234 238 243 249 253 257 252 242 243 249 253 255 254 243 232 236 241 230 245 248 248 249 245 239 246 255 248
226 240 242 243 243 242 241 241 243 240 234 232 236 240 243 247 250 252 248 245 247 250 251 247 236 230 242 253 237 216 232 242 243 243 238 237 248 250
229 236 241 242 241 240 240 240 243 245 239 236 237 240 242 244 247 249 248 247 249 251 251 244 235 230 235 248 254 240 218 229 237 241 242 239 246 250
242 241 243 245 244 241 241 240 239 240 241 237 238 240 241 241 245 247 249 248 248 250 250 248 243 233 240 245 249 246 239 221 225 233 235 233 239 240
255 250 248 246 245 244 242 239 238 238 240 239 241 241 239 239 244 248 249 248 246 247 252 255 250 232 224 232 242 248 248 238 227 229 235 237 232 230
259 256 254 249 243 240 239 238 238 240 240 240 241 242 242 242 245 248 249 250 250 251 252 253 246 232 232 233 239 243 243 237 229 224 229 240 244 254
Height
1544 1544 1544 1543 1543 1543 1542 1542 1542 1540 1538 1538 1539 1539 1539 1538 1538 1538 1538 1538 1539 1539 1539 1540 1541 1542 1543 1544 1546 1548 1551 1553 1556 1560 1563 1567 1570 1574
1542 1542 1541 1541 1541 1540 1540 1539 1539 1538 1536 1535 1535 1535 1535 1534 1534 1534 1534 1534 1534 1534 1535 1535 1536 1537 1537 1539 1540 1542 1544 1546 1549 1552 1555 1558 1562 1565
1539 1539 1538 1538 1538 1537 1537 1536 1535 1534 1532 1531 1531 1531 1530 1530 1530 1529 1529 1529 1529 1529 1530 1530 1531 1531 1532 1533 1534 1535 1536 1538 1541 1544 1547 1550 1553 1557
1536 1536 1535 1535 1534 1534 1533 1532 1531 1530 1529 1527 1526 1526 1526 1525 1525 1524 1524 1523 1523 1524 1524 1524 1525 1525 1526 1526 1527 1528 1529 1530 1533 1535 1538 1541 1544 1548
1532 1532 1531 1531 1530 1529 1528 1528 1527 1526 1525 1523 1521 1521 1520 1520 1519 1519 1519 1518 1518 1518 1518 1518 1518 1519 1519 1519 1520 1520 1521 1523 1525 1527 1529 1532 1535 1539
1529 1528 1527 1526 1525 1525 1524 1523 1522 1521 1520 1518 1516 1515 1515 1515 1514 1513 1513 1513 1512 1512 1512 1512 1512 1512 1513 1513 1513 1514 1514 1515 1517 1519 1521 1523 1526 1529
1524 1523 1522 1522 1520 1520 1518 1517 1517 1515 1514 1513 1511 1510 1509 1509 1509 1508 1507 1506 1506 1506 1506 1506 1506 1506 1506 1506 1507 1507 1507 1508 1509 1511 1513 1515 1517 1520
1519 1518 1517 1516 1515 1514 1513 1512 1511 1510 1509 1508 1506 1505 1504 1504 1503 1503 1502 1501 1500 1501 1500 1499 1500 1499 1500 1500 1500 1500 1501 1501 1502 1503 1505 1506 1509 1511
1514 1513 1512 1511 1510 1509 1508 1507 1506 1504 1503 1502 1500 1499 1499 1498 1498 1497 1496 1495 1494 1494 1494 1492 1493 1492 1493 1493 1493 1493 1494 1494 1495 1495 1497 1498 1500 1502
1508 1507 1506 1505 1504 1503 1502 1500 1499 1498 1497 1496 1494 1493 1493 1493 1492 1491 1490 1488 1487 1488 1488 1485 1485 1485 1486 1485 1486 1486 1486 1487 1487 1488 1489 1490 1492 1494
1501 1501 1500 1498 1498 1497 1495 1494 1492 1492 1491 1490 1488 1487 1487 1486 1486 1485 1483 1482 1480 1480 1481 1480 1478 1478 1477 1477 1478 1479 1479 1479 1480 1480 1481 1482 1484 1485
1494 1493 1493 1492 1491 1490 1489 1487 1485 1485 1485 1483 1482 1481 1480 1479 1479 1478 1477 1476 1474 1473 1473 1473 1472 1472 1470 1470 1471 1471 1472 1472 1473 1473 1474 1474 1476 1477
1486 1485 1485 1484 1484 1483 1482 1480 1479 1478 1477 1476 1475 1474 1473 1472 1472 1471 1470 1469 1468 1466 1467 1467 1466 1466 1465 1464 1464 1465 1465 1465 1466 1466 1466 1467 1468 1469
1478 1477 1477 1477 1476 1475 1474 1473 1472 1471 1469 1468 1467 1466 1465 1465 1464 1463 1462 1461 1460 1459 1460 1460 1459 1459 1459 1457 1457 1457 1458 1459 1459 1459 1459 1460 1461 1462
1470 1469 1469 1468 1468 1467 1466 1465 1464 1463 1462 1460 1458 1458 1457 1457 1456 1455 1454 1453 1452 1451 1451 1451 1451 1451 1451 1450 1450 1450 1450 1451 1452 1452 1452 1453 1453 1455
1461 1460 1460 1459 1459 1458 1457 1457 1456 1455 1454 1452 1451 1450 1449 1448 1447 1447 1446 1445 1443 1443 1443 1444 1443 1443 1443 1443 1443 1442 1444 1444 1444 1445 1446 1446 1446 1447
1452 1451 1450 1449 1449 1448 1448 1448 1447 1446 1445 1444 1443 1442 1441 1440 1439 1439 1438 1437 1436 1434 1435 1436 1436 1436 1435 1436 1435 1435 1436 1436 1437 1438 1439 1438 1439 1440
1442 1440 1440 1440 1439 1439 1438 1438 1438 1437 1436 1435 1434 1433 1433 1432 1431 1431 1430 1429 1428 1427 1427 1428 1428 1428 1428 1427 1428 1428 1428 1429 1430 1431 1431 1431 1431 1433
1432 1430 1430 1430 1429 1429 1429 1429 1428 1428 1428 1427 1426 1425 1425 1424 1423 1423 1422 1421 1420 1420 1419 1420 1420 1420 1419 1419 1419 1421 1421 1422 1423 1423 1424 1424 1424 1426
1422 1421 1421 1421 1420 1420 1420 1420 1419 1419 1419 1418 1418 1417 1417 1417 1416 1415 1414 1414 1413 1412 1412 1411 1411 1411 1411 1412 1412 1412 1414 1415 1415 1416 1417 1417 1418 1419
1414 1413 1412 1412 1411 1411 1411 1411 1411 1410 1410 1410 1410 1410 1409 1409 1408 1407 1407 1406 1406 1405 1404 1403 1403 1405 1405 1405 1404 1404 1406 1407 1408 1409 1410 1411 1412 1412
1405 1404 1404 1403 1403 1403 1403 1403 1402 1402 1402 1402 1402 1402 1402 1401 1400 1400 1399 1399 1398 1397 1396 1396 1397 1397 1397 1397 1396 1397 1398 1400 1401 1402 1403 1405 1405 1406
1397 1396 1396 1395 1395 1395 1395 1395 1395 1395 1395 1395 1395 1394 1394 1393 1393 1392 1392 1391 1390 1390 1390 1389 1389 1389 1389 1389 1390 1390 1391 1392 1394 1395 1396 1397 1399 1400